Location: ???????
(52.3000°N, 54.4667°E)
Time: 22:03:05
(UTC+00:00)

Cosmos 2082 Rocket - Pass Details

Date: 24 January 2020
Orbit: 834 x 852 km, 71.0° (Epoch: 27 February)

Event Time Altitude Azimuth Distance (km) Brightness Sun altitude
Rises 13:27:13 0° 281° (W) 3,391 6.4 -5.4°
Reaches altitude 10° 13:30:50 10° 304° (NW) 2,457 5.1 -5.9°
Maximum altitude 13:33:58 15° 338° (NNW) 2,124 4.3 -6.4°
Drops below altitude 10° 13:37:08 10° 13° (NNE) 2,458 4.3 -6.8°
Enters shadow 13:39:56 - 32° (NNE) 3,153 4.7 -7.2°
